Presure
214 201 156 311 305 297 363 375 360 349 329 348 326 373 328 322 291 292 277 260 284 274 277 272 271 275 290 279 275 279 290 312 323 316 338 377 370 236 217 217 224 225 170 178
195 217 258 294 294 296 307 308 376 366 355 327 332 393 379 341 324 303 276 297 251 286 283 273 273 268 299 275 273 276 286 290 316 314 328 308 330 211 202 231 76 203 169 169
233 188 249 270 293 285 276 290 314 374 367 349 335 333 323 319 353 376 353 323 310 290 249 284 270 272 272 283 269 273 283 286 302 321 310 301 318 219 241 210 115 115 83 119
208 246 246 259 268 285 286 274 275 301 328 373 354 343 326 309 330 320 312 324 346 294 323 276 273 270 266 279 276 273 277 282 299 309 313 322 318 277 208 145 72 78 77 77
228 212 244 240 247 254 272 282 270 273 292 311 380 369 356 348 329 321 339 304 322 330 314 342 278 267 271 274 280 279 278 285 297 307 320 322 349 328 215 219 215 77 78 79
221 221 227 235 237 238 244 263 276 268 278 278 299 352 372 364 352 338 324 334 317 287 327 305 309 269 281 270 282 284 291 289 293 317 326 358 328 281 218 200 216 190 114 175
220 217 217 226 229 232 234 237 248 270 288 285 278 292 340 377 371 357 336 328 332 320 304 326 350 321 270 274 275 275 288 292 296 303 319 326 349 314 224 214 212 201 190 196
219 218 223 224 224 223 224 226 234 240 248 281 287 279 288 330 374 367 352 340 336 349 337 324 325 339 334 274 271 283 276 286 299 304 288 278 297 265 222 213 201 213 189 195
213 214 214 214 219 214 220 221 222 227 232 241 280 288 283 288 333 366 382 362 340 334 353 338 331 278 331 326 281 276 285 277 288 288 288 286 272 234 265 186 199 209 210 219
212 208 216 212 213 213 218 216 217 224 223 231 236 253 284 283 287 299 352 374 362 344 339 364 339 339 333 324 286 289 267 284 276 287 264 278 279 227 222 217 217 237 235 211
209 207 206 209 209 207 213 213 214 222 216 225 232 233 247 261 285 289 305 352 381 367 351 336 368 349 346 346 335 320 295 273 279 276 251 272 275 264 279 239 193 211 212 206
192 202 212 206 213 210 205 211 213 218 221 215 226 234 234 241 255 280 293 318 358 381 380 360 338 374 364 339 349 334 347 304 293 281 290 248 249 282 278 257 224 225 220 237
191 194 200 195 203 206 204 211 219 219 220 219 230 227 235 236 244 254 276 293 309 362 382 382 366 343 340 368 365 360 349 345 349 295 292 285 203 253 240 239 214 241 237 251
191 197 207 201 201 199 206 208 215 222 216 215 222 227 232 235 236 245 258 281 288 318 373 393 382 369 352 335 363 360 361 367 355 350 315 299 281 282 205 225 228 231 244 224
194 196 198 192 198 200 204 208 213 217 218 217 218 230 224 246 231 241 250 262 273 288 320 401 402 386 371 355 335 364 363 366 371 371 364 352 283 296 253 224 242 223 238 224
202 193 197 201 196 200 203 206 208 218 215 223 227 237 238 248 236 235 240 254 262 281 302 376 420 407 385 372 373 341 361 364 363 368 367 367 366 308 299 247 236 211 236 237
204 199 195 198 193 203 192 204 209 213 219 215 232 237 245 249 257 228 241 249 259 283 286 310 421 419 398 380 369 373 359 358 362 366 369 367 368 370 371 314 300 253 241 239
206 202 198 199 197 198 198 202 205 216 220 223 232 237 241 250 258 230 236 245 254 275 286 303 431 435 410 390 375 371 376 363 362 361 367 376 379 385 385 383 387 388 306 296
205 205 202 197 200 194 203 202 206 215 220 227 238 232 238 245 239 225 235 242 251 269 284 293 321 449 429 404 385 373 377 369 368 360 360 364 366 375 378 382 392 403 481 447
211 204 203 204 203 203 203 205 211 216 223 226 239 230 234 242 244 227 234 239 248 269 277 290 303 456 440 420 394 389 372 369 365 356 358 364 370 363 369 377 387 442 427 435
211 208 202 204 205 201 204 210 215 220 228 226 234 226 227 239 242 226 233 238 243 271 272 288 300 423 446 429 404 390 373 368 364 352 351 360 360 357 358 369 380 419 408 390
214 213 209 209 206 207 209 210 218 222 227 234 226 228 241 242 233 223 229 239 239 263 265 292 291 422 447 432 411 393 379 368 362 349 348 355 354 349 353 361 373 449 389 388
214 215 213 211 208 209 212 211 219 224 227 225 226 227 244 236 223 223 227 241 242 255 265 280 289 308 445 431 417 394 379 369 361 348 345 349 353 344 347 354 367 478 403 377
216 214 213 207 211 212 211 219 224 227 222 225 231 232 243 247 221 226 230 239 243 259 267 278 290 301 444 430 419 398 380 366 360 349 343 343 347 348 339 348 348 361 474 380
216 215 214 215 214 213 222 225 223 220 223 226 226 239 245 235 219 227 234 237 244 259 267 277 287 298 444 429 417 401 380 367 356 349 341 341 343 347 342 337 343 367 356 440
220 219 216 216 221 225 225 222 218 221 223 227 229 240 245 226 220 229 236 237 252 259 267 273 282 295 396 428 414 401 386 374 354 349 341 337 340 341 343 337 334 339 360 362
222 220 223 224 225 223 224 217 217 218 228 230 235 247 236 221 218 228 239 238 258 260 266 272 280 293 310 428 411 398 386 375 364 350 343 336 337 339 342 342 336 331 349 349
Wind_Speed
68 70 57 49 50 46 43 37 37 35 35 34 33 31 29 28 36 32 32 28 36 36 29 25 24 24 24 17 16 15 12 12 5 11 4 11 32 112 119 126 106 117 82 83
63 68 62 49 47 49 48 49 37 35 31 30 30 26 28 26 28 37 41 36 32 42 34 29 27 27 23 20 18 15 11 8 9 12 23 29 19 103 97 122 19 119 86 81
62 50 56 49 48 48 51 51 55 41 38 32 33 32 29 27 25 30 31 37 40 48 26 33 28 27 26 23 22 22 15 14 14 20 31 47 44 121 121 130 46 46 18 46
58 47 49 50 51 52 51 51 53 57 50 35 32 31 29 30 29 31 31 29 27 31 41 38 31 29 30 27 26 27 24 21 18 21 38 41 57 108 128 75 33 28 27 28
47 58 43 47 53 56 56 55 52 53 55 58 39 36 34 30 27 26 27 28 25 24 31 26 38 33 32 29 29 29 31 27 19 30 35 45 42 73 130 122 131 34 35 35
43 44 41 44 49 53 58 57 55 54 53 53 58 51 39 36 34 31 28 27 26 25 22 31 28 38 34 33 32 30 28 30 28 21 27 23 57 96 122 115 139 120 61 93
41 41 42 38 42 48 53 57 59 62 61 58 55 60 57 41 36 32 29 28 26 24 23 19 19 33 34 36 34 36 32 31 30 31 35 36 41 69 130 132 139 126 122 114
37 37 35 36 40 44 49 51 57 64 66 63 59 55 60 61 45 39 39 36 31 28 23 19 16 17 23 38 38 37 39 36 33 41 55 53 64 100 123 127 106 138 88 110
36 37 37 37 40 41 46 51 54 58 60 64 66 62 60 60 61 49 40 35 33 31 29 25 21 24 18 22 42 42 40 44 41 50 63 65 76 117 89 63 100 134 133 139
37 39 36 35 36 39 44 46 47 52 52 58 65 69 65 63 62 63 55 43 38 34 32 29 24 22 21 23 42 46 50 47 52 50 76 74 80 123 110 125 119 132 132 137
39 39 39 40 40 41 42 43 45 50 46 55 61 61 67 70 69 64 64 56 41 36 33 31 29 26 24 24 25 37 52 58 57 62 61 78 88 105 97 138 65 120 137 136
40 43 40 40 42 42 42 45 46 49 52 46 57 62 62 66 69 69 68 70 59 45 38 33 29 28 27 25 27 27 25 60 59 63 64 66 112 85 96 122 135 120 148 147
39 42 42 42 41 41 42 47 50 49 52 50 58 59 64 62 65 68 73 73 74 60 46 38 33 28 26 28 27 28 29 30 30 66 66 75 60 120 131 136 99 147 145 137
36 41 42 40 41 41 45 45 51 54 50 51 56 59 62 61 61 67 72 77 73 77 59 44 37 32 29 26 29 29 29 30 32 34 62 72 88 96 73 115 123 135 140 126
36 38 41 40 42 43 45 48 52 55 55 55 56 61 56 67 58 67 72 75 75 77 80 52 42 34 30 28 26 28 29 29 30 31 34 38 85 87 131 101 136 110 131 122
37 35 40 43 40 42 45 48 50 58 55 59 62 65 64 69 64 64 69 75 76 79 82 68 46 38 32 28 28 27 27 28 28 29 32 35 38 82 88 131 123 85 124 125
36 38 37 40 41 46 42 50 53 56 59 56 65 66 68 70 72 60 69 74 77 82 81 86 54 41 35 29 27 27 27 28 28 29 31 34 37 40 43 90 101 128 132 133
38 37 39 40 42 44 44 48 52 60 61 62 65 66 68 71 73 66 69 74 77 84 84 86 58 44 37 32 28 26 26 27 28 28 29 30 32 36 39 42 44 47 103 110
41 40 39 38 43 42 49 49 53 60 62 64 66 65 67 69 67 62 71 75 79 85 86 87 92 46 38 34 29 26 25 26 26 27 28 28 30 31 32 34 36 37 22 30
40 42 41 43 44 47 50 53 57 61 62 63 66 64 66 70 69 64 71 74 79 87 87 88 90 47 39 34 30 26 25 24 25 26 27 26 26 28 28 30 31 25 24 21
41 43 42 44 45 45 50 54 59 61 63 62 64 62 63 69 69 64 70 74 76 88 87 88 90 60 40 34 30 27 25 23 23 25 26 25 24 26 26 26 26 24 23 26
40 43 43 44 46 48 52 54 59 60 61 64 62 63 69 69 65 62 68 76 75 88 86 91 90 61 41 35 30 28 25 24 23 24 25 24 23 25 25 24 24 21 22 23
41 42 43 44 47 49 52 55 59 60 59 59 61 62 69 66 60 63 67 78 79 87 87 91 91 97 42 36 30 28 26 25 24 24 25 24 22 24 24 24 23 18 19 22
42 43 44 45 49 52 53 59 58 58 58 60 64 66 69 70 60 66 71 78 82 88 89 92 93 96 43 38 32 28 27 26 25 25 25 25 24 23 23 23 22 21 16 21
43 45 47 49 51 53 57 56 56 55 59 61 62 69 71 66 61 69 77 78 84 88 90 92 94 96 44 39 33 29 27 26 26 26 27 26 25 24 23 23 23 22 20 17
45 46 49 51 54 53 53 54 54 57 60 64 65 72 71 64 63 72 80 80 88 89 91 92 93 95 66 38 34 30 27 27 26 26 27 27 26 25 24 23 23 22 21 20
46 48 50 51 51 52 55 53 56 56 62 65 67 73 67 64 64 74 82 82 90 89 91 92 95 96 98 39 35 31 29 27 27 27 27 28 27 26 25 24 23 23 20 20
Wind_Direction
308 306 301 347 348 354 5 357 353 348 345 334 332 298 278 271 273 269 287 290 256 260 258 261 266 266 267 252 260 276 300 351 313 205 208 284 225 192 195 194 188 185 212 198
303 316 330 353 353 0 10 12 1 357 352 344 340 333 300 288 278 273 288 255 293 251 247 246 253 250 258 237 241 246 267 267 318 214 162 180 205 197 201 186 250 189 186 207
322 315 329 351 8 4 359 10 18 4 0 354 347 344 335 329 324 313 300 284 277 267 311 254 252 253 254 242 234 242 235 240 268 227 211 198 196 190 191 191 208 213 241 207
316 335 337 359 6 15 15 7 10 21 15 359 352 344 337 335 322 316 314 312 311 279 268 264 250 252 248 252 232 234 230 232 245 247 220 224 209 192 197 208 276 265 269 272
324 327 348 351 5 9 17 21 11 12 19 21 3 352 346 339 332 326 321 308 312 310 287 266 255 250 249 246 239 230 227 225 236 235 242 231 237 207 195 194 193 262 269 269
324 327 341 1 6 9 11 17 20 13 16 15 20 11 357 349 343 337 332 326 316 304 317 274 264 253 249 243 246 238 238 225 228 236 240 230 201 190 197 203 191 204 230 220
320 325 332 351 4 11 12 14 14 19 21 19 15 18 13 359 351 344 340 335 328 317 307 306 311 260 248 242 243 232 239 224 223 218 203 199 204 191 192 195 197 209 211 213
323 327 344 353 5 9 12 13 16 17 17 20 18 14 17 14 2 352 344 342 339 331 322 306 294 301 271 242 237 244 228 224 220 208 196 198 194 196 194 199 212 204 223 221
317 324 331 345 0 2 8 12 14 16 14 16 19 19 15 15 14 4 355 347 340 336 326 321 311 267 288 265 240 233 238 226 219 207 205 203 201 195 206 219 214 209 211 205
315 322 335 341 352 359 8 10 10 13 13 13 14 16 17 15 13 13 5 354 348 340 334 322 315 304 287 267 243 239 223 231 224 221 208 211 209 202 206 208 207 206 207 212
319 326 331 340 347 352 0 2 4 8 7 12 13 12 14 16 15 12 12 6 354 345 335 328 318 311 303 293 270 251 241 224 225 222 222 215 211 207 211 204 228 215 214 221
326 327 337 340 348 349 351 357 359 3 6 4 9 10 11 11 12 12 11 10 5 355 345 333 321 316 305 295 288 272 274 240 235 226 228 225 208 217 213 208 211 214 216 215
323 324 328 331 340 346 348 352 357 357 1 3 6 8 7 6 7 9 10 10 9 3 352 343 330 315 309 303 294 284 275 266 259 236 232 225 231 210 207 207 230 212 215 217
319 322 327 331 336 340 343 347 352 355 355 358 1 2 4 3 3 6 7 8 7 6 359 347 337 325 312 299 301 293 287 280 267 260 239 233 224 225 233 222 224 218 218 223
313 319 324 328 334 336 341 346 348 350 352 354 356 358 357 0 1 3 5 5 3 2 3 354 341 331 318 305 290 296 292 288 285 276 265 255 229 230 219 226 221 232 224 223
309 314 320 325 327 332 338 343 345 347 347 351 353 355 356 358 360 1 2 2 0 0 1 356 346 336 325 312 303 287 292 288 283 280 275 269 263 237 233 223 226 236 227 231
304 308 313 321 324 331 331 339 342 343 345 346 350 352 355 356 357 357 359 359 359 360 358 360 350 339 330 319 307 298 291 290 286 283 278 272 270 268 265 240 234 230 233 235
300 305 311 316 320 326 330 333 337 341 343 345 348 350 352 355 355 355 356 357 358 358 357 358 351 341 333 324 313 303 293 289 288 287 287 285 281 278 276 273 273 269 239 235
295 300 305 313 320 323 329 330 335 338 340 343 346 348 350 353 354 351 354 355 356 356 357 357 357 341 334 328 317 309 301 296 293 291 291 290 286 286 285 283 284 285 312 267
295 299 308 314 318 322 326 330 333 334 338 340 343 346 348 350 351 351 351 353 354 354 355 355 356 340 334 327 321 311 306 300 296 295 296 296 293 287 290 293 296 306 292 291
296 299 306 312 317 319 324 328 330 333 336 338 341 343 345 347 348 348 350 350 352 353 354 354 355 346 335 328 321 313 309 302 297 296 298 300 295 294 294 302 304 301 289 273
296 299 304 310 314 319 323 325 327 330 335 337 339 339 343 344 345 345 347 349 350 352 351 353 353 346 335 329 321 314 308 303 299 298 299 302 297 297 299 305 310 313 283 276
296 300 304 310 314 317 321 323 325 329 333 334 336 337 341 342 342 343 345 348 349 350 350 351 351 354 335 330 322 315 309 303 301 299 301 303 300 297 301 306 314 314 290 275
299 302 306 310 311 315 318 319 322 327 330 333 335 336 339 341 340 342 345 346 346 347 349 349 350 352 335 331 323 314 308 305 302 300 301 301 301 299 298 303 304 307 303 274
301 303 307 308 310 314 316 318 321 326 329 331 334 335 339 340 339 342 344 344 345 346 347 348 349 350 334 329 323 315 308 303 301 300 300 301 300 298 295 297 300 312 299 292
303 305 305 307 310 312 312 316 321 326 327 330 333 334 336 338 338 341 342 342 343 345 346 345 347 349 343 328 323 315 307 299 300 298 297 299 301 298 296 294 295 299 300 297
301 303 307 308 309 312 317 318 320 324 327 329 331 332 334 335 336 339 340 341 341 343 344 344 345 346 347 327 322 316 310 302 295 296 294 297 299 298 296 292 290 290 300 290